Regional Weather Roundup
Issued by NWS

Home | Current Version | Previous Version | Text Only | Print | Product List | Glossary Off
Versions: 1 2 3 4 5 6 7 8 9 10 11 12 13 14 15 16 17 18 19 20 21 22 23 24 25 26 27 28 29 30 31 32 33 34 35 36 37 38 39 40 41 42 43 44 45 46 47 48 49 50

000
ASUS43 KDTX 270210
RWRMI
MICHIGAN HOURLY REGIONAL WEATHER ROUNDUP
NATIONAL WEATHER SERVICE DETROIT/PONTIAC MI
1000 PM EDT FRI AUG 26 2016

NOTE: "FAIR" INDICATES FEW OR NO CLOUDS BELOW 12,000 FEET WITH NO
SIGNIFICANT WEATHER AND/OR OBSTRUCTION TO VISIBILITY.

MIZ047>049-052>055-059>063-066>070-074>076-081>083-270300-
SOUTHEAST LOWER MICHIGAN

CITY           SKY/WX    TMP DP  RH WIND       PRES   REMARKS
ADRIAN         CLOUDY    72  67  84 CALM      30.16R
ALMA           CLEAR     65  63  94 W12       30.16S
ANN ARBOR      PTCLDY    68  66  93 CALM      30.15R
BAD AXE        PTCLDY    66  64  94 CALM      30.15R
CARO           PTCLDY    65  64  98 CALM      30.14S
DETROIT CITY   PTCLDY    77  62  59 CALM      30.15R
DETROIT        MOCLDY    78  63  59 CALM      30.15R
FLINT          PTCLDY    73  62  68 CALM      30.15R
GROSSE ILE     MOCLDY    74  69  85 CALM      30.14R
HILLSDALE      CLOUDY    69  65  88 CALM      30.17R
HOWELL         MOCLDY    70  63  80 CALM      30.16R

CITY           SKY/WX    TMP DP  RH WIND       PRES   REMARKS
JACKSON        CLOUDY    71  67  87 CALM      30.17R
LAMBERTVILLE   PTCLDY    72  67  84 CALM      30.16R
LANSING        MOCLDY    68  63  84 CALM      30.16R
LAPEER         FAIR      65  64  96 CALM      30.16R
MASON          PTCLDY    68  64  85 CALM      30.16R
MONROE         PTCLDY    71  67  90 CALM      30.14R
MT. CLEMENS    PTCLDY    73  67  83 CALM      30.12R
PONTIAC        MOCLDY    71  63  75 CALM      30.15R
PORT HOPE        N/A     70  66  87 S5        30.13
PORT HURON     PTCLDY    64  64 100 NW3       30.15R
TRI CITIES     CLOUDY    69  64  84 W6        30.16R
MIDLAND        FAIR      66  64  92 CALM      30.15R
TROY           PTCLDY    78  58  51 CALM      30.16R
SAGINAW HB     PTCLDY    68  63  83 SW3       30.14R
$$
MIZ043>046-050>051-056>058-064>065-071>073-077>080-270300-
SOUTHWEST LOWER MICHIGAN

CITY           SKY/WX    TMP DP  RH WIND       PRES   REMARKS
BATTLE CREEK   CLOUDY    70  65  84 N3        30.16R
BENTON HARBOR  PTCLDY    69  61  75 NE3       30.15R
BIG RAPIDS     CLOUDY    64  60  85 NW3       30.17R
COLDWATER      CLOUDY    69  68  96 CALM      30.16R
FREMONT        FAIR      61  59  92 CALM      30.17R
HOLLAND        CLEAR     64  59  83 CALM      30.17R
GRAND RAPIDS   PTCLDY    68  58  70 NW6       30.17R
IONIA          FAIR      69  57  65 NW3       30.16R
KALAMAZOO      CLOUDY    71  62  73 N5        30.16R
LUDINGTON      CLEAR     58  58  99 CALM      30.16R
MARSHALL       CLOUDY    72  66  83 CALM      30.16R
MOUNT PLEASANT CLEAR     68  60  76 W3        30.16R
MUSKEGON       MOCLDY    64  60  87 CALM      30.17R
SOUTH HAVEN    MOCLDY    67  62  84 CALM      30.16R
$$
MIZ016>042-270300-
NORTHERN LOWER MICHIGAN

CITY           SKY/WX    TMP DP  RH WIND       PRES   REMARKS
ALPENA         MOCLDY    64  59  83 NE5       30.17R
BEAVER ISLAND  MOCLDY    61  60  97 CALM      30.16R
BELLAIRE       CLOUDY    59  57  92 CALM      30.16S
CADILLAC       PTCLDY    60  55  81 CALM      30.18R
CHARLEVOIX     PTCLDY    63  59  87 CALM      30.19R
FRANKFORT      PTCLDY    60  56  87 CALM      30.15S
GAYLORD        PTCLDY    64  55  72 CALM      30.18R
GRAYLING       CLOUDY    60  56  89 CALM      30.18R
HARBOR SPRINGS CLEAR     61  59  92 CALM      30.16S
HOUGHTON LAKE  CLEAR     60  55  83 CALM      30.18R
MANISTEE       CLEAR     58  56  93 E5        30.15S
OSCODA         CLEAR     67  64  89 N5        30.14R
PELLSTON       CLEAR     58  56  93 CALM      30.16R
ROGERS CITY    MOCLDY    64  59  86 CALM      30.17R
TRAVERSE CITY  PTCLDY    64  56  75 CALM      30.16R
$$
MIZ007>008-015-270300-
EASTERN UPPER MICHIGAN

CITY           SKY/WX    TMP DP  RH WIND       PRES   REMARKS
KINROSS        MOCLDY    61  55  81 N3        30.17R
MACKINAC ISLAN PTCLDY    63  56  80 NE7       30.16R
NEWBERRY       CLOUDY    58  56  96 CALM      30.17R
S. S. MARIE    MOCLDY    62  53  72 NW6       30.16R
MUNISING         N/A     58  57  97 S5        30.16R
$$
MIZ004>006-011>014-085-270300-
CENTRAL UPPER MICHIGAN

CITY           SKY/WX    TMP DP  RH WIND       PRES   REMARKS
MANISTIQUE     CLOUDY    62  58  86 N3        30.16R
ESCANABA       PTCLDY    65  58  78 NE5       30.15R
MENOMINEE      CLOUDY   N/A N/A N/A CALM      30.15R
SAWYER-GWINN   CLEAR     57  55  94 E3        30.17R
$$
MIZ001>003-009>011-084-270300-
WESTERN UPPER MICHIGAN

CITY           SKY/WX    TMP DP  RH WIND       PRES   REMARKS
IRON MOUNTAIN  MOCLDY    60  54  80 CALM      30.15R
HOUGHTON       PTCLDY    53  52  96 CALM      30.15R
COPPER HARBOR    N/A     57  55  93 W3        30.14R
$$

ABBREVIATIONS USED IN REMARKS
   TC - TEMPERATURE IN CELSIUS
  WCI - WIND CHILL INDEX
   HX - HEAT INDEX
  VSB - VISIBILITY





USA.gov is the U.S. government's official web portal to all federal, state and local government web resources and services.